Flag Weather past 2 weeks in Nærbø, Norway

Now
36 °F

Chilly.


Feels Like: 31 °F
Forecast: 42 / 51 °F
Wind: 6 mph from East

Location: Obrestad

Current Time: Nov 22, 2014 at 3:11:17 AM

Latest Report: Nov 22, 2014 at 2:00 AM


Visibility: N/A

Pressure: 30.25 "Hg

Humidity: 76%

Dew point: 29 °F

Location of NærbøLocation

Historic Weather in Nærbø — Graph

°F

Nærbø temperature yesterday

Maximum temperature yesterday: 41 °F (at 12:00 PM)
Minimum temperature yesterday: 37 °F (at 10:00 PM)
Average temperature yesterday: 39 °F

Past Weeks' High & Low Weather Summary

 TemperatureHumidityPressure
High54 °F (Nov 9, 6:00 AM)94% (Nov 9, 1:00 AM)30.48 "Hg (Nov 9, 1:00 AM)
Low35 °F (Nov 22, 1:00 AM)55% (Nov 19, 11:00 AM)29.29 "Hg (Nov 8, 5:00 AM)
Average46 °F73%29.96 "Hg
* Reported Nov 7 1:00 AM — Nov 22 1:00 AM, Nærbø, Weather by CustomWeather, © 2014

Note: Actual official high and low records may vary slightly from our data, if they occured in-between our weather recording intervals... More about our weather records

Advertising

Nærbø weather history for previous 24 hours

 ConditionsComfort  
Time TempWeatherWind HumidityBarometerVisibility
1:00 AM
Nov 22
35 °FChilly.5 mph77%30.27 "HgN/A
12:00 AM37 °FChilly.5 mph75%30.28 "HgN/A
11:00 PM
Nov 21
39 °FChilly.5 mph71%30.29 "HgN/A
10:00 PM37 °FChilly.5 mph74%30.30 "HgN/A
9:00 PM38 °FChilly.5 mph75%30.29 "HgN/A
8:00 PM39 °FChilly.5 mph71%30.30 "HgN/A
7:00 PM39 °FChilly.6 mph70%30.30 "HgN/A
6:00 PM39 °FChilly.6 mph70%30.29 "HgN/A
5:00 PM40 °FChilly.5 mph71%30.31 "HgN/A
4:00 PM40 °FChilly.6 mph69%30.31 "HgN/A
3:00 PM40 °FQuite cool.7 mph67%30.32 "HgN/A
2:00 PM40 °FQuite cool.8 mph68%30.33 "HgN/A
1:00 PM41 °FQuite cool.8 mph67%30.34 "HgN/A
12:00 PM41 °FQuite cool.6 mph70%30.35 "HgN/A
11:00 AM39 °FChilly.7 mph70%30.36 "HgN/A
10:00 AM39 °FChilly.7 mph72%30.37 "HgN/A
9:00 AM39 °FChilly.8 mph71%30.36 "HgN/A
8:00 AM39 °FChilly.7 mph71%30.35 "HgN/A
7:00 AM38 °FChilly.6 mph73%30.35 "HgN/A
6:00 AM39 °FChilly.6 mph71%30.36 "HgN/A
5:00 AM39 °FChilly.6 mph70%30.37 "HgN/A
3:00 AM39 °FChilly.5 mph73%30.40 "HgN/A
Weather by CustomWeather, © 2014

See weather overviewHow to use our weather pages